Temperature
26 26 25 25 23 22 24 25 25 25 25 24 24 24 23 22 21 19 19 20 20 20 20 19 19 19 19 19 19 19 19 19 19 18 18 18 18 18 18 18 18 18 18 18 18 18 18 18 18
27 26 25 24 23 22 24 25 25 25 25 24 24 23 22 21 20 19 19 20 20 20 20 20 19 19 19 19 19 19 19 19 19 18 18 18 18 18 18 18 18 18 18 18 18 18 18 18 18
27 26 25 23 23 23 25 26 26 26 26 25 24 24 23 21 20 20 20 20 20 20 20 20 20 19 19 19 19 19 19 19 19 18 18 18 18 18 18 18 18 18 18 18 18 18 18 18 18
27 26 26 24 24 26 26 26 26 26 26 25 24 23 23 22 21 21 21 21 20 20 20 20 20 19 19 19 19 19 19 19 19 19 18 18 18 18 18 18 18 18 18 18 18 18 18 18 18
28 27 24 24 26 27 27 27 27 26 25 24 23 22 22 22 22 21 21 21 21 20 20 20 20 20 19 19 19 19 19 19 19 18 18 18 18 18 18 18 18 18 18 18 18 18 18 18 18
28 25 24 24 27 28 28 27 26 25 24 24 23 22 22 21 21 21 21 21 21 21 20 20 20 20 19 19 19 19 19 19 19 18 18 18 18 18 18 18 18 18 18 18 18 18 18 18 18
28 25 25 26 27 27 27 27 26 25 25 24 23 22 22 21 21 21 21 21 21 21 20 20 20 20 19 19 19 19 19 19 19 18 18 18 18 18 18 18 18 18 18 18 18 18 18 18 18
30 25 26 26 27 27 28 28 27 26 25 25 24 22 22 21 21 21 21 21 21 21 20 20 20 20 19 19 19 19 19 19 19 18 18 18 18 18 18 18 18 18 18 18 18 18 18 18 18
30 25 25 26 27 27 28 28 27 27 26 25 25 24 23 22 21 21 21 20 20 20 20 20 20 20 19 19 19 19 19 19 18 18 18 18 18 18 18 18 18 18 18 18 18 18 18 18 18
29 25 27 28 28 28 29 28 28 26 25 25 24 23 23 22 22 22 21 21 20 20 20 20 20 20 19 19 19 19 19 19 18 18 18 18 18 18 18 18 18 18 18 18 18 18 18 18 18
29 28 29 30 30 30 29 28 28 26 24 24 24 23 23 23 22 22 22 21 21 21 20 20 20 20 19 19 19 19 19 19 18 18 18 18 18 18 18 18 18 18 18 18 18 18 18 18 18
30 29 30 30 30 30 29 28 27 26 25 25 25 24 23 23 22 22 22 22 21 21 20 20 20 20 19 19 19 19 19 19 19 18 18 18 18 18 18 18 18 18 18 18 18 18 18 18 18
30 30 31 30 30 30 29 28 27 26 26 25 25 24 24 23 23 22 22 22 21 21 20 20 20 20 19 19 19 19 19 19 19 18 18 18 18 18 18 18 18 18 18 18 18 18 18 18 18
30 30 30 30 30 30 28 28 27 26 26 25 25 24 24 24 23 23 22 22 21 21 21 20 20 20 19 19 19 19 19 19 19 18 18 18 18 18 18 18 18 18 18 18 18 18 18 18 18
31 29 29 29 29 29 28 27 26 26 26 25 25 24 24 24 24 23 23 22 22 21 21 20 20 20 20 19 19 19 19 19 19 18 18 18 18 18 18 18 18 18 18 18 18 18 18 18 18
29 28 28 29 29 29 27 26 27 26 26 25 25 24 24 24 24 24 23 23 22 22 21 21 20 20 20 19 19 19 19 19 19 18 18 18 18 18 18 18 18 18 18 18 18 18 18 18 18
27 27 28 29 29 29 27 26 27 27 26 25 25 25 24 24 24 24 23 23 22 22 22 21 21 20 20 20 19 19 19 19 19 18 18 18 18 18 18 18 18 18 18 18 18 18 18 18 18
27 27 28 28 29 29 27 26 27 27 26 26 25 25 25 24 24 24 24 23 23 22 22 21 21 20 20 20 19 19 19 19 19 19 18 18 18 18 18 18 18 18 18 18 18 18 18 18 18
28 29 28 29 29 28 27 27 27 27 27 26 25 25 25 25 24 24 24 23 23 22 22 21 21 20 20 20 19 19 19 19 19 19 19 18 18 18 18 18 18 18 18 18 18 18 18 18 18
29 29 29 29 30 28 27 26 26 27 26 26 26 25 25 25 24 24 24 23 23 22 22 21 21 21 20 20 20 20 19 19 19 19 19 19 18 18 18 18 18 18 18 18 18 18 18 18 18
29 29 29 29 29 28 27 26 26 26 27 27 26 26 25 25 24 24 24 23 23 22 22 22 21 21 20 20 20 19 19 19 19 19 19 19 18 18 18 18 18 18 18 18 18 18 18 18 18
28 30 30 29 27 25 27 24 25 25 25 26 26 26 25 25 25 24 24 23 23 23 22 22 21 21 21 20 20 19 19 19 19 19 19 19 18 18 18 18 18 18 18 18 18 18 18 18 18
30 30 30 29 27 25 25 24 24 24 25 25 25 26 26 25 25 25 24 24 24 23 22 22 21 21 21 20 20 19 19 19 19 19 19 19 19 18 18 18 18 18 18 18 18 18 18 18 18
31 29 27 24 23 24 25 24 24 23 25 25 26 26 26 26 25 25 24 24 23 23 22 22 22 21 21 20 20 20 19 19 19 19 19 19 19 19 19 18 18 18 18 18 18 18 18 18 17
28 24 24 24 22 23 24 24 23 25 25 26 26 26 26 26 25 25 24 24 24 23 23 22 22 21 21 21 20 20 20 19 19 19 19 19 19 19 19 18 18 18 18 18 18 18 17 17 17
28 24 23 24 24 23 24 25 25 26 27 28 27 27 26 26 26 25 25 24 24 23 23 22 22 22 21 21 21 20 20 20 19 19 19 19 19 19 19 18 18 18 18 18 18 18 17 17 17
29 25 23 22 23 23 23 25 25 26 26 26 26 26 26 26 26 25 25 25 24 24 23 23 22 22 21 21 21 20 20 20 20 19 19 19 19 19 19 18 18 18 18 18 18 18 17 17 17
28 26 22 22 23 23 24 24 23 25 25 25 25 25 26 26 26 25 25 25 24 24 23 23 22 22 22 21 21 21 20 20 20 20 19 19 19 19 19 19 18 18 18 18 18 18 17 17 17
28 27 23 20 21 22 23 23 25 24 24 24 25 26 26 26 26 25 25 25 24 24 23 23 23 22 22 21 21 21 21 20 20 20 19 19 19 19 18 18 18 18 18 18 17 17 17 17 17
27 26 23 23 23 20 21 23 26 25 25 25 25 26 26 26 26 26 25 25 24 24 23 23 23 22 22 22 21 21 21 20 20 20 19 19 19 19 18 18 18 18 18 17 17 17 17 17 17
Wind_Speed
8 7 3 1 5 6 7 7 10 11 8 9 11 11 10 8 6 8 5 13 13 10 12 13 14 15 15 15 15 15 15 15 15 16 16 16 16 16 16 15 15 15 15 14 14 14 14 13 14
6 6 2 3 6 6 6 9 14 13 13 14 14 14 11 9 9 11 8 13 14 12 12 13 14 14 15 15 15 15 15 15 15 15 15 15 15 16 15 15 14 14 14 13 13 13 12 12 12
5 4 3 4 4 7 7 10 15 14 13 11 8 8 7 8 11 8 11 16 13 11 13 14 15 15 15 15 14 15 15 15 14 14 14 14 15 15 14 14 14 13 13 12 12 11 11 11 11
3 2 4 5 7 7 10 12 16 14 10 10 10 8 5 8 8 13 18 17 14 9 13 15 16 15 15 14 14 14 14 14 14 14 14 13 13 14 14 14 13 13 12 11 11 10 10 10 9
2 4 6 5 6 7 11 15 14 12 7 11 12 10 7 7 17 20 18 17 15 10 12 15 16 16 15 14 14 14 13 13 13 13 13 12 12 13 13 13 13 12 11 11 10 10 9 9 9
3 4 6 6 7 8 10 14 16 17 16 15 13 10 6 11 18 18 17 15 14 12 11 14 16 15 15 14 13 13 13 13 12 12 12 12 12 12 12 12 12 11 11 10 9 9 8 7 7
4 4 5 8 9 8 9 11 13 14 14 10 11 8 6 10 14 16 15 14 12 12 10 10 13 14 14 14 13 13 12 12 12 11 11 11 11 11 11 11 11 11 10 10 9 8 7 6 6
6 5 5 6 10 7 8 8 11 15 11 14 10 8 8 11 14 15 14 13 11 9 8 8 10 11 11 12 13 13 12 12 11 11 11 11 10 10 11 10 10 10 10 9 8 7 6 5 4
5 5 5 7 9 6 8 12 9 10 12 7 5 9 13 17 18 16 13 10 10 10 8 7 8 9 10 11 11 12 11 11 11 10 11 9 7 7 8 10 10 10 9 8 7 7 5 4 3
6 6 8 8 9 9 11 14 11 9 12 11 12 13 15 16 17 16 15 13 11 11 10 8 8 8 9 9 10 9 9 9 9 8 8 7 7 7 7 9 9 9 8 7 6 6 4 3 2
6 7 6 7 10 11 11 10 8 13 11 16 18 18 16 14 14 14 14 13 12 12 11 9 9 9 8 6 9 7 7 7 8 8 8 8 7 5 6 6 6 6 5 4 3 3 3 3 2
7 5 7 7 9 10 9 8 8 10 13 18 18 18 15 14 13 13 13 12 12 11 11 10 9 7 7 8 7 7 6 6 6 8 9 8 5 5 5 4 4 4 3 3 2 2 3 3 4
6 5 6 8 10 9 9 9 9 9 15 17 17 16 15 14 12 11 12 12 12 11 10 10 9 8 7 6 5 6 6 7 8 8 9 9 6 4 4 4 4 5 5 4 3 2 2 2 3
2 5 6 7 8 7 10 8 8 11 17 17 16 14 14 14 13 11 11 11 11 11 10 9 9 8 7 6 4 5 7 7 7 8 9 11 8 6 5 4 4 5 6 5 4 4 3 2 2
3 6 5 3 6 5 10 6 9 16 17 16 15 14 13 13 14 14 14 13 13 12 10 10 9 8 7 6 5 5 7 7 6 7 9 10 9 8 6 4 3 4 6 4 3 3 2 2 1
4 4 1 3 4 5 8 6 8 15 16 15 15 14 13 12 14 14 14 12 12 12 11 10 10 8 7 5 4 4 6 6 6 7 8 9 10 9 7 4 4 5 5 3 2 2 2 1 1
4 1 3 4 5 6 6 6 9 13 15 14 14 13 13 12 11 12 14 14 13 13 12 10 8 8 7 5 4 4 5 5 6 7 7 8 9 9 7 4 4 5 3 2 3 2 2 2 1
4 2 3 5 5 7 5 6 10 13 15 14 13 13 13 14 14 14 13 13 13 12 11 10 9 8 7 5 3 2 3 3 4 5 7 8 8 8 7 4 4 4 3 2 2 2 2 2 2
6 4 4 4 5 6 6 7 9 11 13 13 12 12 13 13 11 12 13 13 12 10 10 10 10 8 6 4 3 3 3 3 3 4 7 8 8 7 6 3 3 3 3 4 3 3 3 2 2
4 2 2 1 3 5 4 3 6 9 14 17 17 15 14 11 11 12 12 12 12 12 11 10 10 9 8 5 4 3 3 3 3 3 4 7 7 7 6 4 4 4 3 3 3 3 2 2 2
3 3 3 3 2 3 6 2 3 4 6 9 13 14 15 17 17 15 14 12 12 12 12 12 10 9 8 7 4 3 2 1 1 2 3 4 6 7 6 6 4 4 4 4 4 4 4 3 2
4 5 3 3 5 1 3 2 6 4 4 8 11 12 14 14 14 14 14 14 14 13 12 10 10 9 8 8 6 6 5 4 4 3 3 3 5 6 6 6 5 4 4 4 4 4 4 4 3
6 3 2 3 4 2 2 3 7 3 5 9 12 14 15 15 16 16 16 15 14 12 11 10 10 9 8 8 8 7 5 4 2 2 3 3 3 4 5 5 5 4 4 4 4 3 4 4 4
2 4 7 6 6 1 4 4 6 6 10 10 11 12 14 15 15 14 13 12 10 11 11 10 10 8 8 8 7 8 7 6 5 4 4 3 2 2 3 4 4 4 3 4 4 3 4 3 3
4 6 5 5 5 4 4 3 8 9 10 11 13 13 14 14 14 14 13 13 12 13 12 11 11 9 8 8 8 8 8 7 7 6 5 5 3 2 4 3 3 3 3 3 3 3 3 3 3
3 10 8 5 5 5 3 3 7 6 6 8 11 12 13 13 13 14 15 15 14 14 13 12 11 10 9 9 8 7 7 5 5 5 4 5 4 4 4 4 4 3 3 3 3 3 3 3 3
4 4 10 8 2 0 4 3 5 3 3 5 8 11 13 13 13 14 14 14 14 14 13 13 13 11 10 10 8 7 7 6 5 5 4 4 4 4 4 4 4 3 3 3 3 2 3 2 3
8 8 7 6 4 1 4 3 4 4 3 4 8 10 12 12 12 12 13 13 13 12 11 12 12 12 10 10 9 8 7 7 6 5 5 4 4 3 4 4 4 3 3 3 2 2 2 2 2
1 3 6 6 7 7 3 7 7 9 7 6 8 11 12 13 14 13 11 11 12 11 11 11 11 10 10 10 8 8 7 7 6 6 6 5 4 4 4 4 4 3 3 2 2 2 2 2 1
4 5 7 5 4 6 5 7 6 7 6 7 7 9 10 11 11 10 11 10 10 10 10 11 11 11 10 9 8 8 7 7 6 6 6 6 5 5 5 4 4 3 3 3 3 3 2 2 1
Wind_Direction
173 170 160 113 59 59 85 90 97 84 68 70 80 84 83 69 102 130 151 137 134 132 129 123 118 115 113 113 112 111 109 107 107 107 108 109 110 109 113 113 116 116 116 117 118 119 121 122 121
170 165 145 68 85 89 86 104 99 102 115 104 87 85 79 74 91 117 131 138 136 134 131 128 124 121 118 116 114 113 113 112 111 111 111 112 113 113 114 116 119 120 120 120 122 123 123 125 125
179 179 113 80 103 124 121 114 111 106 108 102 95 75 80 109 118 131 146 142 135 132 134 133 129 126 124 121 118 116 117 115 114 114 114 116 117 117 118 120 121 123 123 122 124 124 124 125 128
153 96 58 83 113 133 130 125 117 109 90 86 96 82 79 116 125 136 141 139 133 132 136 136 133 131 129 127 125 123 122 120 118 119 118 118 120 121 121 122 124 125 124 123 124 123 124 124 127
101 79 67 83 108 113 118 120 118 108 95 96 98 101 88 98 123 134 139 138 136 137 139 140 138 136 133 131 128 127 125 124 124 123 123 124 124 124 126 126 127 127 125 125 125 126 127 126 127
63 77 83 97 103 104 113 118 110 107 112 111 109 106 103 124 130 139 140 140 141 142 143 143 141 139 136 134 132 131 130 128 127 126 126 129 131 130 130 130 130 130 129 129 130 132 133 132 131
118 103 121 121 109 110 123 127 123 128 128 128 126 107 121 138 142 140 139 138 140 142 143 142 145 143 141 139 137 136 135 134 133 132 132 133 136 138 136 136 137 137 136 136 138 139 138 136 134
145 106 98 111 118 125 133 120 134 132 123 133 131 126 150 156 142 135 136 136 138 142 145 143 147 146 144 144 143 142 143 143 142 139 138 139 137 139 141 142 144 145 146 144 144 145 145 144 145
110 93 125 143 134 141 127 109 115 113 122 133 112 130 148 142 135 132 132 134 145 150 155 154 154 153 152 153 152 149 149 149 147 146 144 141 139 141 148 150 151 151 152 154 156 158 160 163 171
111 127 170 162 140 142 127 124 126 113 110 107 110 120 137 138 139 141 147 152 156 159 168 169 166 166 166 162 154 156 154 154 155 158 153 147 150 154 155 157 160 161 163 167 167 168 172 181 199
119 136 149 136 137 134 127 129 123 125 132 144 143 146 148 146 146 149 156 159 161 162 166 171 172 172 169 158 158 164 162 165 170 175 172 161 156 155 157 160 166 169 170 176 178 183 190 192 207
109 129 136 139 131 127 135 135 129 138 157 155 151 151 152 155 158 157 158 159 156 158 165 169 169 166 164 159 166 169 169 174 180 185 181 167 155 152 159 169 174 178 185 195 207 206 210 216 224
105 135 133 135 127 131 129 134 132 138 144 148 150 152 158 159 160 160 157 155 153 156 163 165 163 157 153 149 166 168 174 179 181 179 181 176 165 160 170 182 187 194 198 197 198 206 226 224 223
141 124 121 127 121 127 130 131 119 145 146 151 157 164 167 162 159 154 154 155 155 157 158 157 156 154 148 152 159 163 176 179 176 180 185 180 172 167 169 177 190 197 202 198 192 195 202 206 188
72 80 81 125 122 132 118 116 149 153 152 158 166 171 170 164 161 163 165 162 159 157 157 158 158 152 149 153 162 163 174 173 172 182 184 180 175 173 173 174 186 199 201 194 187 186 177 182 170
42 75 114 232 139 151 121 162 172 158 156 165 173 174 171 171 171 168 165 161 158 156 157 163 161 154 154 154 154 156 166 165 170 177 178 180 182 180 173 175 192 196 187 173 169 166 145 162 188
18 111 211 231 188 160 135 173 179 167 163 170 177 177 174 174 174 171 167 164 163 162 160 162 157 159 158 153 146 148 157 163 169 168 174 182 184 182 172 179 192 183 170 178 184 162 158 171 210
256 237 236 218 201 161 164 194 178 174 174 178 181 179 176 179 182 176 170 167 165 163 161 159 158 164 156 140 125 120 142 165 169 172 183 184 184 181 172 179 189 178 165 185 186 177 182 179 189
222 230 249 234 180 151 174 190 184 177 178 180 183 182 183 184 179 171 170 167 162 163 160 161 162 168 158 147 150 154 174 176 180 193 194 187 190 183 171 181 180 174 181 198 192 176 184 202 163
235 243 269 296 145 138 152 188 191 186 191 188 185 184 182 174 169 171 170 169 170 171 169 167 171 171 170 171 168 164 165 182 188 196 195 193 188 184 182 179 185 186 187 197 195 176 172 209 166
273 195 208 188 54 74 108 350 261 221 201 195 192 184 179 179 176 175 173 175 173 176 176 176 175 173 173 167 151 133 114 103 130 186 208 206 191 191 188 183 184 188 183 192 201 186 179 200 216
266 247 183 143 101 284 134 178 263 230 223 200 190 183 183 182 175 174 174 176 180 181 176 170 171 172 174 168 166 167 175 188 204 193 197 209 198 193 192 186 185 189 188 195 208 197 187 178 207
224 235 129 138 123 47 18 131 265 224 211 209 191 186 184 182 178 178 180 181 180 176 172 171 168 172 173 173 173 173 183 190 190 184 189 203 204 194 188 184 181 185 194 199 202 196 193 187 194
203 34 27 53 76 60 242 156 252 226 206 202 193 185 182 179 177 179 179 172 170 169 170 169 170 175 174 173 173 175 181 183 178 190 191 199 201 210 202 186 180 187 197 203 202 198 195 196 200
81 82 30 4 13 255 252 164 235 237 208 189 182 182 176 172 174 173 171 170 172 172 173 172 172 177 178 176 179 183 186 187 191 196 195 192 192 206 217 205 191 193 203 202 195 192 203 199 203
179 135 154 192 215 267 314 223 254 250 204 178 175 175 170 170 173 178 178 174 174 175 174 173 174 177 178 180 184 186 187 190 199 198 191 193 200 208 205 199 197 197 195 196 190 197 213 209 210
162 167 168 146 160 43 301 304 334 37 109 140 159 162 172 174 175 181 181 176 175 175 177 176 177 180 183 183 181 185 186 187 192 193 190 195 204 209 197 191 196 192 185 195 192 196 209 198 206
169 155 95 112 141 211 301 273 223 212 176 160 165 171 176 171 171 178 179 177 176 176 176 176 178 182 184 183 184 187 187 187 184 178 183 194 202 211 190 190 190 194 195 195 184 188 191 184 214
205 115 114 126 149 152 210 264 224 200 190 179 180 175 172 172 175 178 175 172 170 172 173 175 179 180 182 183 184 183 186 186 183 187 188 191 195 197 193 188 187 189 189 183 167 175 158 172 215
183 180 146 155 204 159 163 257 253 189 172 162 168 169 168 172 174 171 167 165 166 170 173 176 182 184 187 184 183 186 185 183 185 191 195 189 188 190 190 184 184 190 174 160 155 166 154 163 195
Height
1500 1499 1500 1502 1506 1517 1520 1514 1508 1508 1509 1511 1510 1511 1515 1519 1525 1535 1533 1533 1534 1534 1535 1535 1536 1536 1536 1536 1537 1537 1537 1538 1539 1539 1540 1541 1542 1542 1543 1544 1545 1546 1547 1549 1549 1551 1552 1553 1554
1500 1500 1502 1504 1515 1531 1525 1513 1511 1510 1512 1512 1513 1515 1517 1523 1525 1529 1531 1534 1535 1535 1536 1537 1537 1537 1538 1538 1538 1539 1539 1540 1541 1541 1542 1543 1543 1544 1545 1546 1547 1548 1549 1550 1551 1552 1553 1554 1555
1500 1501 1503 1507 1518 1526 1522 1512 1510 1512 1512 1511 1515 1518 1521 1525 1528 1530 1532 1534 1536 1536 1537 1538 1538 1539 1539 1540 1540 1540 1541 1541 1542 1542 1543 1544 1545 1546 1546 1547 1548 1549 1550 1551 1552 1554 1555 1555 1557
1501 1502 1504 1512 1519 1511 1509 1509 1510 1512 1514 1515 1516 1521 1525 1528 1528 1530 1533 1535 1536 1537 1538 1539 1540 1540 1541 1541 1542 1542 1543 1543 1544 1544 1545 1546 1546 1547 1548 1549 1550 1551 1552 1553 1554 1555 1556 1557 1558
1501 1502 1510 1519 1516 1508 1506 1507 1509 1511 1515 1518 1518 1523 1528 1530 1530 1532 1534 1536 1537 1538 1539 1540 1541 1541 1542 1543 1543 1544 1544 1545 1545 1546 1546 1547 1548 1549 1550 1551 1551 1552 1553 1554 1555 1556 1557 1558 1559
1501 1504 1520 1526 1516 1509 1508 1509 1510 1514 1518 1521 1522 1525 1531 1532 1532 1534 1536 1538 1539 1539 1540 1541 1542 1543 1543 1544 1544 1545 1545 1546 1547 1547 1548 1548 1549 1550 1551 1552 1552 1554 1555 1556 1557 1558 1559 1560 1561
1502 1507 1518 1518 1516 1514 1511 1510 1511 1515 1518 1521 1522 1526 1532 1534 1535 1536 1538 1539 1540 1541 1542 1542 1543 1544 1544 1545 1546 1546 1547 1547 1548 1549 1549 1550 1550 1551 1552 1553 1554 1555 1556 1557 1558 1559 1560 1561 1562
1498 1506 1515 1516 1516 1515 1510 1510 1512 1514 1518 1523 1523 1526 1531 1534 1535 1537 1539 1540 1541 1542 1543 1544 1544 1545 1545 1546 1547 1547 1548 1548 1549 1550 1550 1551 1551 1552 1553 1554 1555 1556 1557 1558 1559 1560 1562 1563 1564
1497 1510 1520 1515 1514 1513 1509 1510 1515 1516 1518 1522 1523 1525 1529 1533 1536 1538 1540 1541 1542 1543 1544 1545 1545 1546 1546 1547 1548 1548 1549 1550 1550 1551 1551 1552 1553 1553 1554 1555 1556 1557 1558 1559 1560 1562 1563 1564 1565
1496 1512 1510 1503 1503 1507 1508 1510 1513 1518 1520 1523 1526 1528 1532 1534 1535 1537 1538 1540 1542 1543 1544 1545 1546 1547 1547 1548 1549 1549 1550 1551 1551 1552 1553 1553 1554 1555 1555 1556 1557 1558 1559 1560 1562 1563 1564 1565 1566
1495 1503 1500 1500 1501 1504 1508 1511 1512 1516 1522 1522 1524 1528 1531 1534 1536 1537 1538 1540 1541 1543 1544 1545 1546 1547 1548 1548 1549 1550 1551 1552 1552 1553 1554 1554 1555 1556 1556 1557 1558 1559 1561 1562 1562 1563 1565 1566 1567
1495 1497 1498 1500 1501 1504 1507 1511 1513 1514 1518 1520 1523 1526 1530 1533 1535 1536 1538 1539 1541 1542 1544 1545 1546 1547 1548 1549 1550 1551 1551 1552 1553 1554 1555 1555 1556 1557 1557 1558 1559 1561 1561 1563 1564 1564 1565 1566 1567
1496 1498 1498 1499 1501 1504 1506 1510 1512 1516 1518 1522 1524 1527 1529 1532 1534 1536 1538 1539 1541 1542 1544 1545 1547 1548 1549 1550 1551 1551 1552 1553 1554 1554 1555 1556 1557 1557 1558 1559 1560 1561 1562 1563 1564 1565 1565 1566 1567
1498 1498 1499 1501 1502 1505 1507 1511 1513 1518 1519 1522 1524 1527 1529 1531 1533 1535 1537 1538 1540 1542 1543 1545 1546 1548 1549 1550 1551 1552 1552 1553 1554 1555 1556 1556 1557 1558 1559 1559 1560 1561 1562 1563 1564 1565 1566 1566 1567
1497 1500 1503 1502 1502 1506 1508 1515 1514 1516 1519 1522 1524 1526 1528 1530 1532 1533 1535 1537 1539 1541 1543 1544 1546 1548 1549 1550 1551 1552 1553 1553 1554 1555 1556 1557 1557 1558 1559 1559 1560 1561 1563 1563 1564 1565 1566 1566 1567
1499 1507 1514 1505 1503 1506 1512 1524 1515 1516 1518 1521 1523 1525 1528 1529 1531 1533 1535 1537 1539 1540 1542 1544 1546 1547 1548 1549 1550 1552 1553 1553 1554 1555 1556 1557 1557 1558 1559 1559 1560 1561 1562 1563 1564 1565 1565 1566 1566
1510 1518 1516 1508 1501 1504 1511 1518 1513 1514 1516 1519 1521 1524 1526 1528 1530 1532 1534 1536 1537 1539 1541 1543 1545 1546 1548 1549 1550 1551 1552 1553 1554 1554 1555 1556 1557 1558 1558 1559 1560 1561 1561 1562 1563 1564 1564 1565 1565
1520 1517 1513 1510 1501 1503 1510 1512 1509 1512 1514 1517 1519 1521 1524 1525 1527 1530 1532 1535 1536 1538 1540 1542 1544 1546 1547 1548 1549 1550 1551 1552 1553 1553 1554 1555 1556 1557 1557 1558 1559 1560 1560 1561 1562 1563 1563 1564 1564
1507 1509 1511 1504 1497 1503 1509 1510 1508 1510 1513 1515 1517 1519 1521 1523 1526 1529 1531 1533 1536 1537 1539 1541 1542 1544 1546 1547 1548 1549 1550 1551 1552 1553 1553 1554 1555 1555 1556 1557 1558 1559 1559 1560 1561 1561 1562 1562 1563
1502 1507 1507 1502 1496 1502 1510 1511 1507 1507 1508 1509 1512 1515 1518 1522 1525 1527 1530 1532 1534 1536 1537 1539 1541 1542 1544 1545 1547 1548 1549 1550 1551 1552 1552 1553 1553 1554 1555 1556 1556 1557 1558 1558 1559 1559 1560 1560 1561
1501 1505 1505 1505 1502 1502 1510 1520 1513 1507 1506 1509 1510 1512 1515 1518 1521 1524 1527 1529 1532 1534 1535 1537 1539 1541 1542 1544 1546 1547 1548 1549 1550 1550 1551 1552 1552 1553 1554 1554 1555 1555 1556 1556 1557 1557 1558 1558 1559
1506 1494 1495 1499 1512 1522 1516 1538 1521 1511 1509 1507 1509 1511 1514 1517 1519 1522 1524 1527 1529 1531 1534 1536 1537 1539 1541 1542 1544 1545 1546 1547 1548 1549 1549 1550 1551 1551 1552 1552 1553 1553 1554 1554 1555 1555 1555 1556 1556
1493 1487 1492 1498 1511 1523 1521 1533 1526 1512 1512 1507 1505 1507 1510 1513 1516 1519 1521 1524 1527 1530 1532 1534 1536 1537 1539 1540 1542 1543 1544 1545 1546 1547 1548 1548 1549 1549 1550 1550 1551 1551 1552 1552 1552 1553 1553 1553 1553
1484 1491 1499 1509 1521 1538 1524 1531 1530 1514 1506 1502 1501 1504 1507 1510 1514 1517 1519 1522 1525 1528 1530 1532 1534 1535 1537 1538 1539 1541 1542 1543 1544 1545 1546 1546 1547 1547 1548 1548 1548 1549 1549 1550 1550 1550 1550 1550 1550
1489 1513 1536 1538 1549 1543 1522 1525 1523 1500 1494 1494 1496 1500 1504 1508 1511 1514 1518 1520 1523 1525 1527 1530 1532 1533 1535 1536 1537 1539 1540 1541 1542 1543 1544 1544 1545 1545 1546 1546 1546 1547 1547 1547 1547 1547 1547 1547 1547
1493 1509 1537 1548 1551 1542 1524 1524 1509 1491 1489 1491 1494 1497 1502 1506 1509 1512 1514 1517 1520 1523 1525 1527 1529 1531 1532 1534 1535 1537 1538 1539 1540 1541 1542 1542 1543 1544 1544 1544 1544 1544 1545 1545 1545 1544 1544 1544 1544
1492 1503 1507 1528 1534 1542 1533 1517 1503 1492 1491 1492 1495 1497 1500 1503 1506 1510 1513 1515 1518 1520 1523 1525 1527 1529 1530 1532 1533 1535 1536 1537 1538 1539 1540 1540 1541 1541 1542 1542 1542 1542 1542 1542 1542 1542 1542 1542 1542
1482 1491 1512 1528 1545 1550 1537 1527 1520 1503 1497 1494 1495 1496 1498 1501 1505 1508 1511 1513 1516 1519 1521 1523 1525 1527 1528 1530 1531 1532 1533 1535 1536 1537 1537 1538 1539 1539 1540 1540 1540 1540 1540 1540 1539 1539 1539 1539 1539
1486 1492 1507 1524 1529 1546 1548 1533 1498 1495 1493 1493 1493 1494 1496 1498 1501 1505 1508 1511 1514 1517 1519 1521 1523 1525 1526 1527 1529 1530 1531 1533 1534 1535 1535 1536 1537 1537 1537 1537 1537 1537 1537 1537 1537 1537 1536 1536 1536
1482 1489 1503 1521 1526 1531 1537 1527 1487 1487 1487 1489 1491 1493 1496 1498 1500 1503 1507 1509 1512 1514 1516 1519 1521 1523 1524 1525 1527 1528 1529 1531 1532 1533 1534 1534 1535 1535 1535 1535 1535 1535 1535 1535 1535 1534 1534 1534 1534